owner,sensor,date,latitude,longitude,vertical_datum,direction_of_sea_water_velocity,sea_water_speed,upward_sea_water_velocity,qcFlag 
TABS,ioos:station:TABS:L:1,1998-09-01T00:00:00Z,28.0416,-94.1166,2.0,291.2379915,23.02362265,-99999.0,'11111222,11111222,99999999' 
TABS,ioos:station:TABS:L:1,1998-09-01T00:30:00Z,28.0416,-94.1166,2.0,268.9507524,24.58411886,-99999.0,'11111222,11111222,99999999' 
TABS,ioos:station:TABS:L:1,1998-09-01T01:00:00Z,28.0416,-94.1166,2.0,280.7639044,33.51973299,-99999.0,'11111222,11111222,99999999' 
TABS,ioos:station:TABS:L:1,1998-09-01T01:30:00Z,28.0416,-94.1166,2.0,288.1066745,33.0779685,-99999.0,'11111222,11111222,99999999' 
TABS,ioos:station:TABS:L:1,1998-09-01T02:00:00Z,28.0416,-94.1166,2.0,287.407764,31.38749114,-99999.0,'11111222,11111222,99999999' 
TABS,ioos:station:TABS:L:1,1998-09-01T02:30:00Z,28.0416,-94.1166,2.0,295.4291164,27.06174422,-99999.0,'11111222,11111222,99999999' 
TABS,ioos:station:TABS:L:1,1998-09-01T03:00:00Z,28.0416,-94.1166,2.0,317.6279289,18.35457709,-99999.0,'11111222,11111222,99999999' 
TABS,ioos:station:TABS:L:1,1998-09-01T03:30:00Z,28.0416,-94.1166,2.0,311.8536719,20.99737365,-99999.0,'11111222,11111222,99999999' 
TABS,ioos:station:TABS:L:1,1998-09-01T05:00:00Z,28.0416,-94.1166,2.0,296.7126046,27.85255464,-99999.0,'11111222,11111222,99999999' 
TABS,ioos:station:TABS:L:1,1998-09-01T05:30:00Z,28.0416,-94.1166,2.0,303.6009784,26.6533769,-99999.0,'11111222,11111222,99999999' 
TABS,ioos:station:TABS:L:1,1998-09-01T06:00:00Z,28.0416,-94.1166,2.0,296.4363036,27.78545123,-99999.0,'11111222,11111222,99999999' 
TABS,ioos:station:TABS:L:1,1998-09-01T06:30:00Z,28.0416,-94.1166,2.0,301.5338258,25.35388925,-99999.0,'11111222,11111222,99999999' 
TABS,ioos:station:TABS:L:1,1998-09-01T07:00:00Z,28.0416,-94.1166,2.0,303.0807571,22.93815163,-99999.0,'11111222,11111222,99999999' 
TABS,ioos:station:TABS:L:1,1998-09-01T07:30:00Z,28.0416,-94.1166,2.0,297.3141977,25.3233963,-99999.0,'11111222,11111222,99999999' 
TABS,ioos:station:TABS:L:1,1998-09-01T08:00:00Z,28.0416,-94.1166,2.0,280.5199086,25.3053117,-99999.0,'11111222,11111222,99999999' 
TABS,ioos:station:TABS:L:1,1998-09-01T08:30:00Z,28.0416,-94.1166,2.0,292.3266905,24.32339614,-99999.0,'11111222,11111222,99999999' 
TABS,ioos:station:TABS:L:1,1998-09-01T09:00:00Z,28.0416,-94.1166,2.0,277.3635745,22.08209456,-99999.0,'11111222,11111222,99999999' 
TABS,ioos:station:TABS:L:1,1998-09-01T09:30:00Z,28.0416,-94.1166,2.0,284.2965008,23.52862299,-99999.0,'11111222,11111222,99999999' 
TABS,ioos:station:TABS:L:1,1998-09-01T10:00:00Z,28.0416,-94.1166,2.0,281.6231774,25.86025909,-99999.0,'11111222,11111222,99999999' 
TABS,ioos:station:TABS:L:1,1998-09-01T10:30:00Z,28.0416,-94.1166,2.0,281.4234156,27.82108912,-99999.0,'11111222,11111222,99999999' 
TABS,ioos:station:TABS:L:1,1998-09-01T11:00:00Z,28.0416,-94.1166,2.0,276.8304649,25.05782912,-99999.0,'11111222,11111222,99999999' 
TABS,ioos:station:TABS:L:1,1998-09-01T11:30:00Z,28.0416,-94.1166,2.0,294.1982893,19.27346362,-99999.0,'11111222,11111222,99999999' 
TABS,ioos:station:TABS:L:1,1998-09-01T12:00:00Z,28.0416,-94.1166,2.0,279.3040956,26.7215138,-99999.0,'11111222,11111222,99999999' 
TABS,ioos:station:TABS:L:1,1998-09-01T12:30:00Z,28.0416,-94.1166,2.0,276.0914982,26.67056992,-99999.0,'11111222,11111222,99999999' 
TABS,ioos:station:TABS:L:1,1998-09-01T13:00:00Z,28.0416,-94.1166,2.0,297.3698414,18.79376758,-99999.0,'11111222,11111222,99999999' 
TABS,ioos:station:TABS:L:1,1998-09-01T13:30:00Z,28.0416,-94.1166,2.0,278.1212734,26.33407109,-99999.0,'11111222,11111222,99999999' 
TABS,ioos:station:TABS:L:1,1998-09-01T14:00:00Z,28.0416,-94.1166,2.0,270.415399,20.71054321,-99999.0,'11111222,11111222,99999999' 
TABS,ioos:station:TABS:L:1,1998-09-01T14:30:00Z,28.0416,-94.1166,2.0,270.3849497,22.35050335,-99999.0,'11111222,11111222,99999999' 
TABS,ioos:station:TABS:L:1,1998-09-01T15:00:00Z,28.0416,-94.1166,2.0,276.4797477,27.7371682,-99999.0,'11111222,11111222,99999999' 
TABS,ioos:station:TABS:L:1,1998-09-01T15:30:00Z,28.0416,-94.1166,2.0,274.6622831,25.7150734,-99999.0,'11111222,11111222,99999999' 
TABS,ioos:station:TABS:L:1,1998-09-01T16:00:00Z,28.0416,-94.1166,2.0,255.638198,19.23095941,-99999.0,'11111222,11111222,99999999' 
TABS,ioos:station:TABS:L:1,1998-09-01T16:30:00Z,28.0416,-94.1166,2.0,262.4871642,21.64579636,-99999.0,'11111222,11111222,99999999' 
TABS,ioos:station:TABS:L:1,1998-09-01T17:00:00Z,28.0416,-94.1166,2.0,262.2004594,29.62402572,-99999.0,'11111222,11111222,99999999' 
TABS,ioos:station:TABS:L:1,1998-09-01T17:30:00Z,28.0416,-94.1166,2.0,239.9277538,31.51153757,-99999.0,'11111222,11111222,99999999' 
TABS,ioos:station:TABS:L:1,1998-09-01T18:00:00Z,28.0416,-94.1166,2.0,263.1988153,39.01451012,-99999.0,'11111222,11111222,99999999' 
TABS,ioos:station:TABS:L:1,1998-09-01T18:30:00Z,28.0416,-94.1166,2.0,257.5055113,26.85599561,-99999.0,'11111222,11111222,99999999' 
TABS,ioos:station:TABS:L:1,1998-09-01T19:00:00Z,28.0416,-94.1166,2.0,263.5566627,34.48782104,-99999.0,'11111222,11111222,99999999' 
TABS,ioos:station:TABS:L:1,1998-09-01T19:30:00Z,28.0416,-94.1166,2.0,253.2974341,37.33511082,-99999.0,'11111222,11111222,99999999' 
TABS,ioos:station:TABS:L:1,1998-09-01T20:00:00Z,28.0416,-94.1166,2.0,257.0606637,33.94180903,-99999.0,'11111222,11111222,99999999' 
TABS,ioos:station:TABS:L:1,1998-09-01T20:30:00Z,28.0416,-94.1166,2.0,256.0266043,35.16041098,-99999.0,'11111222,11111222,99999999' 
TABS,ioos:station:TABS:L:1,1998-09-01T21:00:00Z,28.0416,-94.1166,2.0,255.0916828,33.0007909,-99999.0,'11111222,11111222,99999999' 
TABS,ioos:station:TABS:L:1,1998-09-01T21:30:00Z,28.0416,-94.1166,2.0,262.1358759,41.36902223,-99999.0,'11111222,11111222,99999999' 
TABS,ioos:station:TABS:L:1,1998-09-01T22:00:00Z,28.0416,-94.1166,2.0,256.2640471,35.12449288,-99999.0,'11111222,11111222,99999999' 
TABS,ioos:station:TABS:L:1,1998-09-01T22:30:00Z,28.0416,-94.1166,2.0,261.3473937,36.6268235,-99999.0,'11111222,11111222,99999999' 
TABS,ioos:station:TABS:L:1,1998-09-01T23:00:00Z,28.0416,-94.1166,2.0,260.580854,34.58626895,-99999.0,'11111222,11111222,99999999' 
TABS,ioos:station:TABS:L:1,1998-09-01T23:30:00Z,28.0416,-94.1166,2.0,267.5470468,38.32510535,-99999.0,'11111222,11111222,99999999' 
TABS,ioos:station:TABS:L:1,1998-09-02T00:00:00Z,28.0416,-94.1166,2.0,256.3983596,38.01612947,-99999.0,'11111222,11111222,99999999' 
TABS,ioos:station:TABS:L:1,1998-09-02T00:30:00Z,28.0416,-94.1166,2.0,267.4119245,29.68026449,-99999.0,'11111222,11111222,99999999' 
TABS,ioos:station:TABS:L:1,1998-09-02T01:00:00Z,28.0416,-94.1166,2.0,276.4358818,46.48290223,-99999.0,'11111222,11111222,99999999' 
TABS,ioos:station:TABS:L:1,1998-09-02T01:30:00Z,28.0416,-94.1166,2.0,271.1618722,36.5075006,-99999.0,'11111222,11111222,99999999' 
TABS,ioos:station:TABS:L:1,1998-09-02T02:00:00Z,28.0416,-94.1166,2.0,279.9898862,39.4886642,-99999.0,'11111222,11111222,99999999' 
TABS,ioos:station:TABS:L:1,1998-09-02T02:30:00Z,28.0416,-94.1166,2.0,279.1203347,40.44122896,-99999.0,'11111222,11111222,99999999' 
TABS,ioos:station:TABS:L:1,1998-09-02T03:00:00Z,28.0416,-94.1166,2.0,278.505257,38.27085183,-99999.0,'11111222,11111222,99999999' 
TABS,ioos:station:TABS:L:1,1998-09-02T05:00:00Z,28.0416,-94.1166,2.0,284.393124,40.15012453,-99999.0,'11111222,11111222,99999999' 
TABS,ioos:station:TABS:L:1,1998-09-02T05:30:00Z,28.0416,-94.1166,2.0,289.7688351,32.611915,-99999.0,'11111222,11111222,99999999' 
TABS,ioos:station:TABS:L:1,1998-09-02T06:00:00Z,28.0416,-94.1166,2.0,276.6793824,28.20139181,-99999.0,'11111222,11111222,99999999' 
TABS,ioos:station:TABS:L:1,1998-09-02T06:30:00Z,28.0416,-94.1166,2.0,282.8269118,34.2342577,-99999.0,'11111222,11111222,99999999' 
TABS,ioos:station:TABS:L:1,1998-09-02T07:00:00Z,28.0416,-94.1166,2.0,276.6324071,25.80266072,-99999.0,'11111222,11111222,99999999' 
TABS,ioos:station:TABS:L:1,1998-09-02T07:30:00Z,28.0416,-94.1166,2.0,261.3801111,26.82295286,-99999.0,'11111222,11111222,99999999' 
TABS,ioos:station:TABS:L:1,1998-09-02T08:00:00Z,28.0416,-94.1166,2.0,269.2600034,23.24193624,-99999.0,'11111222,11111222,99999999' 
TABS,ioos:station:TABS:L:1,1998-09-02T08:30:00Z,28.0416,-94.1166,2.0,269.3210205,25.33177649,-99999.0,'11111222,11111222,99999999' 
TABS,ioos:station:TABS:L:1,1998-09-02T09:00:00Z,28.0416,-94.1166,2.0,271.6454391,31.00277729,-99999.0,'11111222,11111222,99999999' 
TABS,ioos:station:TABS:L:1,1998-09-02T09:30:00Z,28.0416,-94.1166,2.0,272.921535,29.2379907,-99999.0,'11111222,11111222,99999999' 
TABS,ioos:station:TABS:L:1,1998-09-02T10:00:00Z,28.0416,-94.1166,2.0,277.5616469,27.20656722,-99999.0,'11111222,11111222,99999999' 
TABS,ioos:station:TABS:L:1,1998-09-02T10:30:00Z,28.0416,-94.1166,2.0,267.3566988,25.80745047,-99999.0,'11111222,11111222,99999999' 
TABS,ioos:station:TABS:L:1,1998-09-02T11:00:00Z,28.0416,-94.1166,2.0,280.4019097,29.68786958,-99999.0,'11111222,11111222,99999999' 
TABS,ioos:station:TABS:L:1,1998-09-02T11:30:00Z,28.0416,-94.1166,2.0,281.3821903,21.89050022,-99999.0,'11111222,11111222,99999999' 
TABS,ioos:station:TABS:L:1,1998-09-02T13:00:00Z,28.0416,-94.1166,2.0,287.5194885,8.90294895,-99999.0,'11133222,11111222,99999999' 
TABS,ioos:station:TABS:L:1,1998-09-02T13:30:00Z,28.0416,-94.1166,2.0,277.2169018,22.52845756,-99999.0,'11111222,11111222,99999999' 
TABS,ioos:station:TABS:L:1,1998-09-02T14:00:00Z,28.0416,-94.1166,2.0,271.2475892,27.56653043,-99999.0,'11111222,11111222,99999999' 
TABS,ioos:station:TABS:L:1,1998-09-02T14:30:00Z,28.0416,-94.1166,2.0,274.0748724,14.63699423,-99999.0,'11111222,11111222,99999999' 
TABS,ioos:station:TABS:L:1,1998-09-02T15:00:00Z,28.0416,-94.1166,2.0,290.2949216,14.61742111,-99999.0,'11111222,11111222,99999999' 
TABS,ioos:station:TABS:L:1,1998-09-02T15:30:00Z,28.0416,-94.1166,2.0,299.4852,16.9445596,-99999.0,'11111222,11111222,99999999' 
TABS,ioos:station:TABS:L:1,1998-09-02T16:00:00Z,28.0416,-94.1166,2.0,290.9455783,12.92398158,-99999.0,'11111222,11111222,99999999' 
TABS,ioos:station:TABS:L:1,1998-09-02T16:30:00Z,28.0416,-94.1166,2.0,258.3364962,13.99903568,-99999.0,'11111222,11111222,99999999' 
TABS,ioos:station:TABS:L:1,1998-09-02T17:00:00Z,28.0416,-94.1166,2.0,273.5994343,14.17796177,-99999.0,'11111222,11111222,99999999' 
TABS,ioos:station:TABS:L:1,1998-09-02T17:30:00Z,28.0416,-94.1166,2.0,270.0004209,35.02,-99999.0,'11111222,11111222,99999999' 
TABS,ioos:station:TABS:L:1,1998-09-02T18:00:00Z,28.0416,-94.1166,2.0,276.8967782,17.4059329,-99999.0,'11111222,11111222,99999999' 
TABS,ioos:station:TABS:L:1,1998-09-02T18:30:00Z,28.0416,-94.1166,2.0,278.9643677,17.20007267,-99999.0,'11111222,11111222,99999999' 
TABS,ioos:station:TABS:L:1,1998-09-02T19:00:00Z,28.0416,-94.1166,2.0,263.0227464,22.06337236,-99999.0,'11111222,11111222,99999999' 
TABS,ioos:station:TABS:L:1,1998-09-02T19:30:00Z,28.0416,-94.1166,2.0,253.4913761,20.97459654,-99999.0,'11111222,11111222,99999999' 
TABS,ioos:station:TABS:L:1,1998-09-02T20:00:00Z,28.0416,-94.1166,2.0,227.3290704,20.87690111,-99999.0,'11111222,11111222,99999999' 
TABS,ioos:station:TABS:L:1,1998-09-02T20:30:00Z,28.0416,-94.1166,2.0,250.4754719,22.29176081,-99999.0,'11111222,11111222,99999999' 
TABS,ioos:station:TABS:L:1,1998-09-02T21:00:00Z,28.0416,-94.1166,2.0,248.5527744,21.60606628,-99999.0,'11111222,11111222,99999999' 
TABS,ioos:station:TABS:L:1,1998-09-02T21:30:00Z,28.0416,-94.1166,2.0,246.7955177,27.2329543,-99999.0,'11111222,11111222,99999999' 
TABS,ioos:station:TABS:L:1,1998-09-02T22:00:00Z,28.0416,-94.1166,2.0,237.345912,20.70202406,-99999.0,'11111222,11111222,99999999' 
TABS,ioos:station:TABS:L:1,1998-09-02T22:30:00Z,28.0416,-94.1166,2.0,259.8778093,27.99571396,-99999.0,'11111222,11111222,99999999' 
TABS,ioos:station:TABS:L:1,1998-09-02T23:00:00Z,28.0416,-94.1166,2.0,266.1405588,28.82535689,-99999.0,'11111222,11111222,99999999' 
TABS,ioos:station:TABS:L:1,1998-09-02T23:30:00Z,28.0416,-94.1166,2.0,275.0974406,21.83634814,-99999.0,'11111222,11111222,99999999' 
TABS,ioos:station:TABS:L:1,1998-09-03T00:00:00Z,28.0416,-94.1166,2.0,287.3832711,28.4178553,-99999.0,'11111222,11111222,99999999' 
TABS,ioos:station:TABS:L:1,1998-09-03T00:30:00Z,28.0416,-94.1166,2.0,274.1608306,26.74046559,-99999.0,'11111222,11111222,99999999' 
TABS,ioos:station:TABS:L:1,1998-09-03T01:00:00Z,28.0416,-94.1166,2.0,284.649263,33.57127492,-99999.0,'11111222,11111222,99999999' 
TABS,ioos:station:TABS:L:1,1998-09-03T01:30:00Z,28.0416,-94.1166,2.0,294.596,27.19770762,-99999.0,'11111222,11111222,99999999' 
TABS,ioos:station:TABS:L:1,1998-09-03T02:00:00Z,28.0416,-94.1166,2.0,287.407764,31.38749114,-99999.0,'11111222,11111222,99999999' 
TABS,ioos:station:TABS:L:1,1998-09-03T02:30:00Z,28.0416,-94.1166,2.0,285.4486368,26.27943873,-99999.0,'11111222,11111222,99999999' 
TABS,ioos:station:TABS:L:1,1998-09-03T03:00:00Z,28.0416,-94.1166,2.0,294.3814975,33.21184427,-99999.0,'11111222,11111222,99999999' 
TABS,ioos:station:TABS:L:1,1998-09-03T03:30:00Z,28.0416,-94.1166,2.0,292.6305737,21.31076958,-99999.0,'11111222,11111222,99999999' 
TABS,ioos:station:TABS:L:1,1998-09-03T05:00:00Z,28.0416,-94.1166,2.0,281.2263927,21.41982726,-99999.0,'11111222,11111222,99999999' 
TABS,ioos:station:TABS:L:1,1998-09-03T05:30:00Z,28.0416,-94.1166,2.0,309.4573366,18.52087741,-99999.0,'11111222,11111222,99999999' 
TABS,ioos:station:TABS:L:1,1998-09-03T06:00:00Z,28.0416,-94.1166,2.0,305.1652067,27.15602327,-99999.0,'11111222,11111222,99999999' 
TABS,ioos:station:TABS:L:1,1998-09-03T06:30:00Z,28.0416,-94.1166,2.0,318.0985685,23.41825143,-99999.0,'11111222,11111222,99999999' 
TABS,ioos:station:TABS:L:1,1998-09-03T07:00:00Z,28.0416,-94.1166,2.0,288.6178689,15.88103901,-99999.0,'11111222,11111222,99999999' 
TABS,ioos:station:TABS:L:1,1998-09-03T07:30:00Z,28.0416,-94.1166,2.0,317.9506803,20.46958964,-99999.0,'11111222,11111222,99999999' 
TABS,ioos:station:TABS:L:1,1998-09-03T08:00:00Z,28.0416,-94.1166,2.0,326.3102217,16.65764689,-99999.0,'11111222,11111222,99999999' 
TABS,ioos:station:TABS:L:1,1998-09-03T08:30:00Z,28.0416,-94.1166,2.0,312.3695834,13.71110863,-99999.0,'11111222,11111222,99999999' 
TABS,ioos:station:TABS:L:1,1998-09-03T09:00:00Z,28.0416,-94.1166,2.0,332.4575749,19.65789918,-99999.0,'11111222,11111222,99999999' 
TABS,ioos:station:TABS:L:1,1998-09-03T09:30:00Z,28.0416,-94.1166,2.0,312.9139226,17.28607821,-99999.0,'11111222,11111222,99999999' 
TABS,ioos:station:TABS:L:1,1998-09-03T10:00:00Z,28.0416,-94.1166,2.0,356.161611,15.53485114,-99999.0,'11111222,11111222,99999999' 
TABS,ioos:station:TABS:L:1,1998-09-03T10:30:00Z,28.0416,-94.1166,2.0,270.595164,14.45077853,-99999.0,'11111222,11111222,99999999' 
TABS,ioos:station:TABS:L:1,1998-09-03T11:00:00Z,28.0416,-94.1166,2.0,287.0656495,15.74315407,-99999.0,'11111222,11111222,99999999' 
TABS,ioos:station:TABS:L:1,1998-09-03T11:30:00Z,28.0416,-94.1166,2.0,278.7416224,17.63483201,-99999.0,'11111222,11111222,99999999' 
TABS,ioos:station:TABS:L:1,1998-09-03T12:00:00Z,28.0416,-94.1166,2.0,288.0590942,6.742121328,-99999.0,'11133222,11111222,99999999' 
TABS,ioos:station:TABS:L:1,1998-09-03T12:30:00Z,28.0416,-94.1166,2.0,275.3910773,15.86014502,-99999.0,'11111222,11111222,99999999' 
TABS,ioos:station:TABS:L:1,1998-09-03T13:00:00Z,28.0416,-94.1166,2.0,280.23685,14.23660774,-99999.0,'11111222,11111222,99999999' 
TABS,ioos:station:TABS:L:1,1998-09-03T13:30:00Z,28.0416,-94.1166,2.0,238.9981259,2.601634102,-99999.0,'11133222,11111222,99999999' 
TABS,ioos:station:TABS:L:1,1998-09-03T14:00:00Z,28.0416,-94.1166,2.0,255.7152985,15.68492588,-99999.0,'11111222,11111222,99999999' 
TABS,ioos:station:TABS:L:1,1998-09-03T14:30:00Z,28.0416,-94.1166,2.0,214.2106334,3.966270288,-99999.0,'11133222,11111222,99999999' 
TABS,ioos:station:TABS:L:1,1998-09-03T15:00:00Z,28.0416,-94.1166,2.0,205.2677403,5.927098784,-99999.0,'11133222,11111222,99999999' 
TABS,ioos:station:TABS:L:1,1998-09-03T15:30:00Z,28.0416,-94.1166,2.0,151.2469756,8.668846521,-99999.0,'11133222,11111222,99999999' 
TABS,ioos:station:TABS:L:1,1998-09-03T16:00:00Z,28.0416,-94.1166,2.0,148.704665,8.894065437,-99999.0,'11133222,11111222,99999999' 
TABS,ioos:station:TABS:L:1,1998-09-03T16:30:00Z,28.0416,-94.1166,2.0,190.2362186,14.23660774,-99999.0,'11111222,11111222,99999999' 
TABS,ioos:station:TABS:L:1,1998-09-03T17:00:00Z,28.0416,-94.1166,2.0,194.1462688,18.90326162,-99999.0,'11111222,11111222,99999999' 
TABS,ioos:station:TABS:L:1,1998-09-03T17:30:00Z,28.0416,-94.1166,2.0,190.3102047,18.3259188,-99999.0,'11111222,11111222,99999999' 
TABS,ioos:station:TABS:L:1,1998-09-03T18:00:00Z,28.0416,-94.1166,2.0,191.6302045,20.68469241,-99999.0,'11111222,11111222,99999999' 
TABS,ioos:station:TABS:L:1,1998-09-03T18:30:00Z,28.0416,-94.1166,2.0,197.7739351,24.40491959,-99999.0,'11111222,11111222,99999999' 
TABS,ioos:station:TABS:L:1,1998-09-03T19:00:00Z,28.0416,-94.1166,2.0,195.5872584,26.60863394,-99999.0,'11111222,11111222,99999999' 
TABS,ioos:station:TABS:L:1,1998-09-03T19:30:00Z,28.0416,-94.1166,2.0,203.7451804,31.09215335,-99999.0,'11111222,11111222,99999999' 
TABS,ioos:station:TABS:L:1,1998-09-03T20:00:00Z,28.0416,-94.1166,2.0,206.7950345,33.38476449,-99999.0,'11111222,11111222,99999999' 
TABS,ioos:station:TABS:L:1,1998-09-03T20:30:00Z,28.0416,-94.1166,2.0,211.8256888,34.19039924,-99999.0,'11111222,11111222,99999999' 
TABS,ioos:station:TABS:L:1,1998-09-03T21:00:00Z,28.0416,-94.1166,2.0,220.8841503,36.6519331,-99999.0,'11111222,11111222,99999999' 
TABS,ioos:station:TABS:L:1,1998-09-03T21:30:00Z,28.0416,-94.1166,2.0,222.0740769,37.12907217,-99999.0,'11111222,11111222,99999999' 
TABS,ioos:station:TABS:L:1,1998-09-03T22:00:00Z,28.0416,-94.1166,2.0,229.3453678,37.51380013,-99999.0,'11111222,11111222,99999999' 
TABS,ioos:station:TABS:L:1,1998-09-03T22:30:00Z,28.0416,-94.1166,2.0,233.437151,39.51656868,-99999.0,'11111222,11111222,99999999' 
TABS,ioos:station:TABS:L:1,1998-09-03T23:00:00Z,28.0416,-94.1166,2.0,237.2920809,41.08436321,-99999.0,'11111222,11111222,99999999' 
TABS,ioos:station:TABS:L:1,1998-09-03T23:30:00Z,28.0416,-94.1166,2.0,243.1464858,40.91161693,-99999.0,'11111222,11111222,99999999' 
TABS,ioos:station:TABS:L:1,1998-09-04T00:00:00Z,28.0416,-94.1166,2.0,250.7760448,44.34249542,-99999.0,'11111222,11111222,99999999' 
TABS,ioos:station:TABS:L:1,1998-09-04T00:30:00Z,28.0416,-94.1166,2.0,260.7937771,38.19191145,-99999.0,'11111222,11111222,99999999' 
TABS,ioos:station:TABS:L:1,1998-09-04T01:00:00Z,28.0416,-94.1166,2.0,264.6736432,46.54092822,-99999.0,'11111222,11111222,99999999' 
TABS,ioos:station:TABS:L:1,1998-09-04T01:30:00Z,28.0416,-94.1166,2.0,270.1789856,48.13023374,-99999.0,'11111222,11111222,99999999' 
TABS,ioos:station:TABS:L:1,1998-09-04T02:00:00Z,28.0416,-94.1166,2.0,274.9321106,45.01665692,-99999.0,'11111222,11111222,99999999' 
TABS,ioos:station:TABS:L:1,1998-09-04T02:30:00Z,28.0416,-94.1166,2.0,281.685883,44.88018048,-99999.0,'11111222,11111222,99999999' 
TABS,ioos:station:TABS:L:1,1998-09-04T03:00:00Z,28.0416,-94.1166,2.0,285.7915473,44.90470465,-99999.0,'11111222,11111222,99999999' 
TABS,ioos:station:TABS:L:1,1998-09-04T03:30:00Z,28.0416,-94.1166,2.0,291.6183413,44.0805853,-99999.0,'11111222,11111222,99999999' 
TABS,ioos:station:TABS:L:1,1998-09-04T05:00:00Z,28.0416,-94.1166,2.0,306.8388494,47.46800712,-99999.0,'11111222,11111222,99999999' 
TABS,ioos:station:TABS:L:1,1998-09-04T05:30:00Z,28.0416,-94.1166,2.0,309.8323161,44.4313628,-99999.0,'11111222,11111222,99999999' 
TABS,ioos:station:TABS:L:1,1998-09-04T06:00:00Z,28.0416,-94.1166,2.0,313.3878878,41.2123598,-99999.0,'11111222,11111222,99999999' 
TABS,ioos:station:TABS:L:1,1998-09-04T06:30:00Z,28.0416,-94.1166,2.0,313.7770704,39.41604369,-99999.0,'11111222,11111222,99999999' 
TABS,ioos:station:TABS:L:1,1998-09-04T07:00:00Z,28.0416,-94.1166,2.0,315.0003157,37.71707571,-99999.0,'11111222,11111222,99999999' 
TABS,ioos:station:TABS:L:1,1998-09-04T07:30:00Z,28.0416,-94.1166,2.0,316.1983173,35.51159388,-99999.0,'11111222,11111222,99999999' 
TABS,ioos:station:TABS:L:1,1998-09-04T08:00:00Z,28.0416,-94.1166,2.0,316.9282589,34.46975486,-99999.0,'11111222,11111222,99999999' 
TABS,ioos:station:TABS:L:1,1998-09-04T08:30:00Z,28.0416,-94.1166,2.0,315.0003157,32.24406922,-99999.0,'11111222,11111222,99999999' 
TABS,ioos:station:TABS:L:1,1998-09-04T09:00:00Z,28.0416,-94.1166,2.0,318.7679741,33.68158102,-99999.0,'11111222,11111222,99999999' 
TABS,ioos:station:TABS:L:1,1998-09-04T09:30:00Z,28.0416,-94.1166,2.0,316.795242,30.25072892,-99999.0,'11111222,11111222,99999999' 
TABS,ioos:station:TABS:L:1,1998-09-04T10:00:00Z,28.0416,-94.1166,2.0,317.9742243,28.48526812,-99999.0,'11111222,11111222,99999999' 
TABS,ioos:station:TABS:L:1,1998-09-04T10:30:00Z,28.0416,-94.1166,2.0,312.600283,27.5235263,-99999.0,'11111222,11111222,99999999' 
TABS,ioos:station:TABS:L:1,1998-09-04T11:00:00Z,28.0416,-94.1166,2.0,316.2868298,28.02970745,-99999.0,'11111222,11111222,99999999' 
TABS,ioos:station:TABS:L:1,1998-09-04T11:30:00Z,28.0416,-94.1166,2.0,313.4537532,27.50940385,-99999.0,'11111222,11111222,99999999' 
TABS,ioos:station:TABS:L:1,1998-09-04T12:00:00Z,28.0416,-94.1166,2.0,311.1031258,27.88205516,-99999.0,'11111222,11111222,99999999' 
TABS,ioos:station:TABS:L:1,1998-09-04T12:30:00Z,28.0416,-94.1166,2.0,316.2676487,28.45386617,-99999.0,'11111222,11111222,99999999' 
TABS,ioos:station:TABS:L:1,1998-09-04T13:00:00Z,28.0416,-94.1166,2.0,319.8703629,30.9841411,-99999.0,'11111222,11111222,99999999' 
TABS,ioos:station:TABS:L:1,1998-09-04T13:30:00Z,28.0416,-94.1166,2.0,311.2116026,31.88949984,-99999.0,'11111222,11111222,99999999' 
TABS,ioos:station:TABS:L:1,1998-09-04T14:00:00Z,28.0416,-94.1166,2.0,309.2788058,22.12955038,-99999.0,'11111222,11111222,99999999' 
TABS,ioos:station:TABS:L:1,1998-09-04T14:30:00Z,28.0416,-94.1166,2.0,311.6461025,23.32498446,-99999.0,'11111222,11111222,99999999' 
TABS,ioos:station:TABS:L:1,1998-09-04T15:00:00Z,28.0416,-94.1166,2.0,310.4646219,18.59858597,-99999.0,'11111222,11111222,99999999' 
TABS,ioos:station:TABS:L:1,1998-09-04T15:30:00Z,28.0416,-94.1166,2.0,308.8662373,17.80080054,-99999.0,'11111222,11111222,99999999' 
TABS,ioos:station:TABS:L:1,1998-09-04T16:00:00Z,28.0416,-94.1166,2.0,307.6576835,17.31763552,-99999.0,'11111222,11111222,99999999' 
TABS,ioos:station:TABS:L:1,1998-09-04T16:30:00Z,28.0416,-94.1166,2.0,309.0706675,22.45055456,-99999.0,'11111222,11111222,99999999' 
TABS,ioos:station:TABS:L:1,1998-09-04T17:00:00Z,28.0416,-94.1166,2.0,323.8633259,18.44950948,-99999.0,'11111222,11111222,99999999' 
TABS,ioos:station:TABS:L:1,1998-09-04T17:30:00Z,28.0416,-94.1166,2.0,333.0452716,9.199396719,-99999.0,'11133222,11111222,99999999' 
TABS,ioos:station:TABS:L:1,1998-09-04T18:00:00Z,28.0416,-94.1166,2.0,297.0159562,17.06172617,-99999.0,'11111222,11111222,99999999' 
TABS,ioos:station:TABS:L:1,1998-09-04T18:30:00Z,28.0416,-94.1166,2.0,292.945011,21.03418408,-99999.0,'11111222,11111222,99999999' 
TABS,ioos:station:TABS:L:1,1998-09-04T19:00:00Z,28.0416,-94.1166,2.0,284.5037687,17.84878987,-99999.0,'11111222,11111222,99999999' 
TABS,ioos:station:TABS:L:1,1998-09-04T19:30:00Z,28.0416,-94.1166,2.0,271.6967359,20.26888255,-99999.0,'11111222,11111222,99999999' 
TABS,ioos:station:TABS:L:1,1998-09-04T20:00:00Z,28.0416,-94.1166,2.0,269.6226395,22.80049342,-99999.0,'11111222,11111222,99999999' 
TABS,ioos:station:TABS:L:1,1998-09-04T20:30:00Z,28.0416,-94.1166,2.0,265.8344659,24.64509079,-99999.0,'11111222,11111222,99999999' 
TABS,ioos:station:TABS:L:1,1998-09-04T21:00:00Z,28.0416,-94.1166,2.0,267.1232515,26.70364207,-99999.0,'11111222,11111222,99999999' 
TABS,ioos:station:TABS:L:1,1998-09-04T21:30:00Z,28.0416,-94.1166,2.0,265.5866773,30.93169895,-99999.0,'11111222,11111222,99999999' 
TABS,ioos:station:TABS:L:1,1998-09-04T23:30:00Z,28.0416,-94.1166,2.0,276.9536754,44.27563777,-99999.0,'11111222,11111222,99999999' 
TABS,ioos:station:TABS:L:1,1998-09-05T00:00:00Z,28.0416,-94.1166,2.0,280.8190497,43.68647502,-99999.0,'11111222,11111222,99999999' 
TABS,ioos:station:TABS:L:1,1998-09-05T00:30:00Z,28.0416,-94.1166,2.0,281.0225149,10.93165129,-99999.0,'11111222,11111222,99999999' 
TABS,ioos:station:TABS:L:1,1998-09-05T01:00:00Z,28.0416,-94.1166,2.0,287.455694,44.20561616,-99999.0,'11111222,11111222,99999999' 